Location: Hurstbourne Priors
(51.2000°N, 1.3667°W)
Time: 03:55:04
(UTC+00:00)

Vanguard 1 - All Passes

Search period start: 14 April 2021 00:00
Search period end: 24 April 2021 00:00
Orbit: 648 x 3834 km, 34.3° (Epoch: 12 April)

Date Brightness Start Highest point End Pass type
(mag) Time Alt. Az. Time Alt. Az. Time Alt. Az.
14 Apr - 12:27:29 10° SSE 12:35:09 14° SE 12:43:57 10° E daylight
14 Apr - 14:39:33 10° SSW 14:55:29 36° SSE 15:14:53 10° E daylight
14 Apr - 16:59:04 10° WSW 17:18:54 48° S 17:39:23 10° ESE daylight
14 Apr - 19:22:16 10° W 19:43:01 43° SSW 20:00:35 10° SE visible
14 Apr - 21:49:16 10° W 22:04:46 24° SW 22:17:09 10° S visible
15 Apr - 12:44:34 10° SSE 12:54:57 19° SE 13:07:41 10° E daylight
15 Apr - 14:59:23 10° SW 15:15:56 40° SSE 15:36:12 10° E daylight
15 Apr - 17:19:43 10° WSW 17:39:43 49° S 18:00:10 10° ESE daylight
15 Apr - 19:43:26 10° W 20:03:35 40° SSW 20:20:40 10° SE visible
15 Apr - 22:11:50 10° W 22:24:42 19° SW 22:35:27 10° SSW visible
16 Apr - 13:02:58 10° S 13:14:53 24° SE 13:30:11 10° E daylight
16 Apr - 15:19:29 10° SW 15:36:30 43° SSE 15:57:22 10° E daylight
16 Apr - 17:40:29 10° WSW 18:00:33 48° S 18:20:48 10° ESE daylight
16 Apr - 20:04:45 10° W 20:24:02 35° SSW 20:40:28 10° SSE visible
16 Apr - 22:35:41 10° W 22:44:32 14° SW 22:52:21 10° SSW visible
17 Apr - 13:22:03 10° SSW 13:34:58 29° SE 13:52:07 10° E daylight
17 Apr - 15:39:47 10° SW 15:57:11 46° SSE 16:18:25 10° ESE daylight
17 Apr - 18:01:21 10° WSW 18:21:21 47° SSW 18:41:17 10° SE daylight
17 Apr - 20:26:16 10° W 20:44:21 31° SW 20:59:56 10° SSE visible
18 Apr - 11:31:03 10° SE 11:35:43 12° ESE 11:40:58 10° ESE daylight
18 Apr - 13:41:35 10° SSW 13:55:12 34° SSE 14:13:44 10° E daylight
18 Apr - 16:00:15 10° WSW 16:17:56 48° S 16:39:21 10° ESE daylight
18 Apr - 18:22:19 10° W 18:42:05 44° SSW 19:01:35 10° SE daylight
18 Apr - 20:48:07 10° W 21:04:32 26° SW 21:18:55 10° S visible
19 Apr - 11:47:26 10° SSE 11:55:28 17° SE 12:05:32 10° E daylight
19 Apr - 14:01:25 10° SSW 14:15:34 38° SSE 14:35:08 10° E daylight
19 Apr - 16:20:50 10° WSW 16:38:44 48° S 17:00:11 10° ESE daylight
19 Apr - 18:43:24 10° W 19:02:44 40° SSW 19:21:41 10° SE daylight
19 Apr - 21:10:32 10° W 21:24:36 20° SW 21:37:12 10° S visible
20 Apr - 12:05:42 10° S 12:15:20 21° SE 12:28:17 10° E daylight
20 Apr - 14:21:30 10° SW 14:36:04 42° SSE 14:56:22 10° E daylight
20 Apr - 16:41:32 10° WSW 16:59:34 48° S 17:20:53 10° ESE daylight
20 Apr - 19:04:38 10° W 19:23:17 36° SSW 19:41:29 10° SSE visible
20 Apr - 21:34:02 10° W 21:44:32 15° SW 21:54:15 10° SSW visible
21 Apr - 12:24:46 10° S 12:35:21 26° SE 12:50:21 10° E daylight
21 Apr - 14:41:46 10° SW 14:56:41 44° SSE 15:17:30 10° ESE daylight
21 Apr - 17:02:20 10° WSW 17:20:23 46° S 17:41:25 10° SE daylight
21 Apr - 19:26:05 10° W 19:43:42 31° SW 20:00:54 10° SSE visible
21 Apr - 22:02:22 10° WSW 22:04:22 10° WSW 22:06:20 10° SW visible
22 Apr - 12:44:17 10° SSW 12:55:31 31° SE 13:12:01 10° E daylight
22 Apr - 15:02:12 10° WSW 15:17:23 46° S 15:38:30 10° ESE daylight
22 Apr - 17:23:15 10° W 17:41:09 43° SSW 18:01:45 10° SE daylight
22 Apr - 19:47:51 10° W 20:04:01 26° SW 20:19:50 10° S visible
23 Apr - 10:51:16 10° SSE 10:56:33 13° SE 11:02:59 10° ESE daylight
23 Apr - 13:04:07 10° SSW 13:15:49 35° SSE 13:33:29 10° E daylight
23 Apr - 15:22:45 10° WSW 15:38:09 47° S 15:59:23 10° ESE daylight
23 Apr - 17:44:16 10° W 18:01:52 39° SSW 18:21:50 10° SE daylight
23 Apr - 20:10:10 10° W 20:24:13 21° SW 20:38:02 10° S visible
